Weather in Magtymguly

Turkmenistan     38°26′05″N   56°17′21″E
temp.,
°C
wind,
m/s
gust,
m/s
humid.,
%
clouds,
%
prec.,
mm/h
press.,
hPa
HPBL,
m
12 august, fri
fri1223:00+28ene57230 0.0 1011140
02:00+26ene56250 0.0 1010104
05:00+24e45280 0.0 101062
08:00+25e46280 0.0 1011256
11:00+30ene44170 0.0 10111436
14:00+33ene54120 0.0 10092078
17:00+34ene75120 0.0 10092214
20:00+31ene68160 0.0 1009658
13 august, sat
sat1323:00+29ene46210 0.0 101098
02:00+27e34250 0.0 101041
05:00+25ese22270 0.0 101013
08:00+27ene23240 0.0 1011129
11:00+31e46160 0.0 10111898
14:00+34ene76130 0.0 10092309
17:00+34ene78130 0.0 10082300
20:00+32ne79140 0.0 1008444
14 august, sun
sun1423:00+29ne46170 0.0 100878
02:00+27ene45200 0.0 100847
05:00+26ene33230 0.0 100823
08:00+27e33220 0.0 1009122
11:00+33ene46160 0.0 10082185
14:00+35ene76140 0.0 10072628
17:00+35ene76140 0.0 10062560
20:00+33ene57150 0.0 1007203
15 august, mon
mon1523:00+30ene45180 0.0 100767
02:00+28ene44200 0.0 100742
05:00+27ne44230 0.0 100733
08:00+28ene45230 0.0 1009175
11:00+33ne45160 0.0 10081896
14:00+36nne64130 0.0 10072480
17:00+36ne75120 0.0 10072298
20:00+33ne57140 0.0 1008178
16 august, tue
tue1623:00+30ene45170 0.0 100955
02:00+29ene44170 0.0 100837
05:00+27ne33190 0.0 100922
08:00+28ene35190 0.0 1010153
11:00+34ene58150 0.0 10101826
14:00+36ne88140 0.0 10102314
17:00+36ne109130 0.0 10092509
20:00+33ne811130 0.0 1010432